FW5810 Weather Reports


time (UTC)temp
F
wind
direction
speed
knots
gust
knots
rain 1hr
in
rain 24hr
in
rain mn
in
humidity
%
barometer
mb
20260901021934 73 29 0.0 0.0 0.00 0.01 0.01 92
20260901021430 73 29 0.0 0.0 0.00 0.01 0.01 91
20260901020925 73 28 0.0 0.0 0.00 0.01 0.01 92
20260901020420 74 29 0.9 0.9 0.00 0.01 0.01 91
20260901015919 74 29 0.0 0.0 0.00 0.01 0.01 90
20260901015416 75 29 0.9 0.9 0.00 0.01 0.01 88
20260901014915 75 29 0.0 0.0 0.00 0.01 0.01 86
20260901014412 75 29 0.0 0.0 0.00 0.01 0.01 86
20260901013907 75 28 0.0 0.9 0.00 0.01 0.01 86
20260901013402 76 153 0.9 0.9 0.00 0.01 0.01 85
20260901012858 76 154 0.9 0.9 0.00 0.01 0.01 82
20260901012353 75 153 0.0 0.0 0.00 0.01 0.01 84
20260901011848 75 153 0.0 2.6 0.00 0.01 0.01 84
20260901011344 75 161 1.7 2.6 0.00 0.01 0.01 84
20260901010843 76 239 0.0 0.0 0.00 0.01 0.01 82
20260901010337 76 240 0.0 0.0 0.00 0.01 0.01 81
20260901005836 76 240 0.9 0.9 0.00 0.01 0.01 81
20260901005331 76 240 0.9 0.9 0.00 0.01 0.01 80
20260901004826 77 240 0.0 0.0 0.00 0.01 0.01 81
20260901004320 77 240 0.0 0.0 0.00 0.01 0.01 81
20260901003814 77 240 0.0 0.0 0.00 0.01 0.01 79
20260901003309 77 240 0.0 0.0 0.00 0.01 0.01 78
20260901002803 77 240 0.0 0.0 0.00 0.01 0.01 78
20260901002258 78 240 0.0 0.0 0.00 0.01 0.01 77
20260901001753 78 240 0.0 0.0 0.00 0.01 0.01 77
20260901001248 78 240 0.0 0.0 0.00 0.01 0.01 75
20260901000738 78 240 0.0 0.0 0.00 0.01 0.01 75
20260901000233 79 240 0.0 0.0 0.00 0.01 0.01 75
20260831235725 79 240 0.0 0.0 0.00 0.01 0.01 74
20260831235221 79 240 0.0 0.0 0.00 0.01 0.01 74
20260831234721 79 240 0.0 0.0 0.00 0.01 0.01 73
20260831234216 79 240 0.0 0.0 0.00 0.01 0.01 72
20260831233711 79 240 0.0 0.9 0.00 0.01 0.01 74
20260831233207 79 241 0.0 0.9 0.00 0.01 0.01 76
20260831232706 79 317 0.9 0.9 0.00 0.01 0.01 75
20260831232203 79 317 0.0 0.9 0.00 0.01 0.01 78
20260831231659 80 317 0.0 0.9 0.00 0.01 0.01 79
20260831231155 80 317 0.0 0.9 0.00 0.01 0.01 77
20260831230654 81 317 0.9 0.9 0.00 0.01 0.01 77
20260831230150 82 317 0.0 0.9 0.00 0.01 0.01 74
20260831225649 83 317 0.9 0.9 0.00 0.01 0.01 71
20260831225144 83 318 0.0 0.0 0.00 0.01 0.01 70
20260831224639 84 317 0.0 0.0 0.00 0.01 0.01 71
20260831224135 84 317 0.0 0.0 0.00 0.01 0.01 68
20260831223630 84 317 0.0 0.0 0.00 0.01 0.01 65
20260831223126 84 317 0.0 0.9 0.00 0.01 0.01 67
20260831222622 85 342 0.0 0.0 0.00 0.01 0.01 63
20260831222118 84 342 0.0 0.0 0.00 0.01 0.01 66
20260831221613 83 342 0.9 0.9 0.00 0.01 0.01 69
20260831221114 84 15 0.0 0.0 0.00 0.01 0.01 68
20260831220608 84 15 0.0 0.0 0.00 0.01 0.01 68
20260831220104 84 15 0.0 0.0 0.00 0.01 0.01 66
20260831215559 85 14 0.9 2.6 0.00 0.01 0.01 62
20260831215054 85 37 1.7 3.5 0.00 0.01 0.01 60
20260831214547 86 4 2.6 2.6 0.00 0.01 0.01 60
20260831214042 87 6 0.9 0.9 0.00 0.01 0.01 60
20260831213538 87 6 0.9 0.9 0.00 0.01 0.01 58
20260831213028 89 293 1.7 2.6 0.00 0.01 0.01 55
20260831212524 89 236 0.9 0.9 0.00 0.01 0.01 56
20260831212019 88 18 0.0 0.0 0.00 0.01 0.01 59
20260831211513 88 310 0.9 2.6 0.00 0.01 0.01 58
20260831211012 88 322 1.7 3.5 0.00 0.01 0.01 59
20260831210508 86 357 0.0 2.6 0.00 0.01 0.01 60
20260831210004 86 246 2.6 3.5 0.00 0.01 0.01 61
20260831205458 86 212 1.7 2.6 0.00 0.01 0.01 64
20260831204954 85 204 0.9 0.9 0.00 0.01 0.01 65
20260831204449 84 204 0.0 0.0 0.00 0.01 0.01 68
20260831203947 84 187 0.0 0.9 0.00 0.01 0.01 69
20260831203442 84 220 0.0 0.0 0.00 0.01 0.01 68
20260831202940 83 220 0.0 0.0 0.00 0.01 0.01 70
20260831202435 82 220 0.0 0.0 0.00 0.01 0.01 70 1019.7
20260831201929 82 220 0.9 2.6 0.00 0.01 0.01 66 1019.7
20260831201428 83 234 0.9 0.9 0.00 0.01 0.01 69 1019.7
20260831200924 84 280 0.9 4.3 0.00 0.01 0.01 64 1019.7
20260831200419 84 112 0.9 0.9 0.00 0.01 0.01 65 1019.7
20260831195914 85 128 0.0 2.6 0.00 0.01 0.01 62 1019.7
20260831195409 86 286 0.9 0.9 0.00 0.01 0.01 59 1019.7
20260831194904 86 31 0.9 4.3 0.00 0.01 0.01 58 1019.7
20260831194400 86 61 0.0 0.9 0.00 0.01 0.01 58 1019.7
20260831193859 87 286 0.9 2.6 0.00 0.01 0.01 56 1019.7
20260831193354 89 342 1.7 7.0 0.00 0.01 0.01 55 1019.7
20260831192849 89 111 2.6 2.6 0.00 0.01 0.01 53 1019.7
20260831192344 87 357 0.0 2.6 0.00 0.01 0.01 55 1019.8
20260831191839 88 284 5.2 7.0 0.00 0.01 0.01 54 1019.7
20260831191335 88 285 3.5 7.0 0.00 0.01 0.01 54 1019.9
20260831190831 88 241 7.0 15.6 0.00 0.01 0.01 54 1019.9
20260831190326 88 186 7.0 7.0 0.00 0.01 0.01 52 1020.1
20260831185825 87 227 4.3 9.6 0.00 0.01 0.01 54 1020.3
20260831185321 87 268 2.6 6.1 0.00 0.01 0.01 55 1020.2
20260831184820 86 238 3.5 4.3 0.00 0.01 0.01 56 1020.2
20260831184316 86 266 3.5 7.0 0.00 0.01 0.01 58 1020.2
20260831183811 86 271 2.6 4.3 0.00 0.01 0.01 59 1020.3
20260831183310 86 119 1.7 4.3 0.00 0.01 0.01 60 1020.4
20260831182809 85 252 3.5 9.6 0.00 0.01 0.01 58 1020.4
20260831182305 85 248 1.7 2.6 0.00 0.01 0.01 64 1020.4
20260831181759 85 227 3.5 6.1 0.00 0.01 0.01 62 1020.4
20260831181254 86 173 2.6 3.5 0.00 0.01 0.01 60 1020.2
20260831180749 86 248 3.5 4.3 0.00 0.01 0.01 60 1020.3
20260831180244 86 254 1.7 3.5 0.00 0.01 0.01 59 1020.3
20260831175743 86 304 3.5 9.6 0.00 0.01 0.01 58 1020.4
20260831175240 86 289 1.7 3.5 0.00 0.01 0.01 59 1020.4
20260831174735 87 2 3.5 7.0 0.00 0.01 0.01 57 1020.3
20260831174231 86 321 1.7 2.6 0.00 0.01 0.01 59 1020.6
20260831173729 85 233 0.9 4.3 0.00 0.01 0.01 57 1020.3
20260831173229 86 268 4.3 6.1 0.00 0.01 0.01 55 1020.4
20260831172725 85 275 2.6 4.3 0.00 0.01 0.01 55 1020.5
20260831172220 85 312 2.6 7.0 0.00 0.01 0.01 57 1020.4
20260831171714 85 260 3.5 6.1 0.00 0.01 0.01 57 1020.5
20260831171212 85 206 2.6 6.1 0.00 0.01 0.01 56 1020.5
20260831170708 86 272 2.6 3.5 0.00 0.01 0.01 54 1020.5
20260831170205 86 301 1.7 3.5 0.00 0.01 0.01 54 1020.8
20260831165700 87 243 2.6 4.3 0.00 0.01 0.01 52 1020.5
20260831165156 87 351 1.7 3.5 0.00 0.01 0.01 51 1020.7
20260831164652 86 359 2.6 3.5 0.00 0.01 0.01 57 1020.5
20260831164148 86 262 6.1 7.0 0.00 0.01 0.01 58 1020.7
20260831163643 86 249 4.3 3.5 0.00 0.01 0.01 59 1020.5
20260831163139 84 298 0.9 0.9 0.00 0.01 0.01 63 1020.7
20260831162638 84 240 0.9 6.1 0.00 0.01 0.01 59 1020.6
20260831162136 85 234 4.3 6.1 0.00 0.01 0.01 58 1020.7
20260831161632 84 53 0.0 3.5 0.00 0.01 0.01 59 1020.8
20260831161129 85 352 0.9 9.6 0.00 0.01 0.01 60 1020.6
20260831160627 84 98 0.0 2.6 0.00 0.01 0.01 63 1020.6
20260831160122 83 331 0.9 7.0 0.00 0.01 0.01 64 1020.6
20260831155617 84 247 2.6 4.3 0.00 0.01 0.01 63 1020.7
20260831155112 83 0 4.3 6.1 0.00 0.01 0.01 65 1020.8
20260831154608 83 201 2.6 4.3 0.00 0.01 0.01 64 1020.6
20260831154108 83 237 2.6 6.1 0.00 0.01 0.01 67 1020.9
20260831153607 82 221 3.5 8.7 0.00 0.01 0.01 67 1020.6
20260831153104 82 211 2.6 6.1 0.00 0.01 0.01 68 1020.7
20260831152559 83 144 1.7 2.6 0.00 0.01 0.01 66 1020.8
20260831152055 84 238 5.2 7.0 0.00 0.01 0.01 65 1020.8
20260831151554 82 205 1.7 3.5 0.00 0.01 0.01 68 1020.9
20260831151049 81 220 3.5 8.7 0.00 0.01 0.01 70 1020.7
20260831150544 81 270 4.3 6.1 0.00 0.01 0.01 73 1020.7
20260831150040 81 227 6.1 7.0 0.00 0.01 0.01 71 1020.8
20260831145534 80 147 4.3 6.1 0.00 0.01 0.01 77 1020.9
20260831145030 79 241 1.7 4.3 0.00 0.01 0.01 79 1020.8
20260831144526 77 218 3.5 3.5 0.00 0.01 0.01 81 1021.0
20260831144021 76 247 0.9 4.3 0.00 0.01 0.01 84 1020.9
20260831143516 76 262 0.0 2.6 0.00 0.01 0.01 85 1021.1
20260831143011 76 247 1.7 4.3 0.00 0.01 0.01 85 1021.0
20260831142508 76 281 2.6 2.6 0.00 0.01 0.01 86 1020.9
20260831142002 75 288 2.6 3.5 0.00 0.01 0.01 86 1020.9
20260831141456 75 258 1.7 4.3 0.00 0.01 0.01 86 1020.8
20260831140951 76 276 1.7 3.5 0.00 0.01 0.01 85 1020.9
20260831140450 75 218 1.7 2.6 0.00 0.01 0.01 86 1020.7
20260831135949 75 252 2.6 3.5 0.00 0.01 0.01 86 1020.8
20260831135448 75 259 0.9 0.9 0.00 0.01 0.01 87 1020.6
20260831134943 74 234 0.9 0.9 0.00 0.01 0.01 88 1020.7
20260831134435 74 237 0.9 2.6 0.00 0.01 0.01 88 1020.7
20260831133934 73 181 2.6 2.6 0.00 0.01 0.01 90 1020.8
20260831133434 73 143 3.5 3.5 0.00 0.01 0.01 90 1020.9
20260831132930 72 144 0.9 0.9 0.00 0.01 0.01 92 1021.1
20260831132425 72 136 0.0 0.9 0.00 0.01 0.01 93 1021.0
20260831131924 71 135 0.0 2.6 0.00 0.01 0.01 94 1020.9
20260831131420 71 136 0.0 0.0 0.00 0.01 0.01 94 1020.8
20260831130916 71 137 0.0 0.0 0.00 0.01 0.01 94 1020.7
20260831130411 70 130 0.9 3.5 0.00 0.01 0.01 94 1020.8
20260831125910 70 112 1.7 2.6 0.00 0.01 0.01 94 1020.8
20260831125405 70 111 0.0 2.6 0.00 0.01 0.01 94 1020.9
20260831124901 70 108 1.7 0.9 0.00 0.01 0.01 94 1020.8
20260831124356 70 107 0.0 0.0 0.00 0.01 0.01 94 1020.9
20260831123851 70 107 0.0 0.0 0.00 0.01 0.01 94 1020.8
20260831123350 70 108 0.9 2.6 0.00 0.01 0.01 94 1020.7
20260831122845 70 102 1.7 2.6 0.00 0.01 0.01 94 1020.7
20260831122340 70 101 0.0 2.6 0.00 0.01 0.01 94 1020.8
20260831121840 70 60 0.9 0.9 0.00 0.01 0.01 94 1020.9
20260831121337 70 73 0.9 0.0 0.00 0.01 0.01 94 1020.8
20260831120832 70 73 0.9 0.9 0.00 0.01 0.01 94 1020.9
20260831120326 70 28 0.0 0.9 0.00 0.01 0.01 94 1020.9
20260831115821 69 268 1.7 3.5 0.00 0.01 0.01 95 1020.9
20260831115318 69 221 2.6 2.6 0.05 0.01 0.01 95 1020.9
20260831114817 69 99 0.0 3.5 0.05 0.01 0.01 95 1021.0
20260831114315 69 121 0.9 2.6 0.00 0.00 0.00 95 1020.9
20260831113811 69 16 0.9 0.9 0.00 0.00 0.00 95 1021.1
20260831113306 69 19 0.0 0.0 0.00 0.00 0.00 95 1021.0
20260831112800 69 20 0.0 0.0 0.00 0.00 0.00 95 1021.0
20260831112255 69 20 0.0 0.0 0.00 0.00 0.00 95 1020.9
20260831111750 69 19 0.0 0.9 0.00 0.00 0.00 95 1020.7
20260831111247 69 20 0.0 0.9 0.00 0.00 0.00 94 1020.5
20260831110743 69 27 0.0 0.0 0.00 0.00 0.00 94 1020.6
20260831110237 69 27 0.0 0.0 0.00 0.00 0.00 94 1020.7
20260831105736 69 27 0.0 0.0 0.00 0.00 0.00 93 1020.4
20260831105232 69 27 0.0 0.0 0.00 0.00 0.00 93 1020.4
20260831104726 69 27 0.0 0.0 0.00 0.00 0.00 93 1020.3
20260831104224 69 27 0.0 0.0 0.00 0.00 0.00 93 1020.3
20260831103723 69 27 0.0 0.0 0.00 0.00 0.00 93 1020.4
20260831103219 69 322 0.0 0.9 0.00 0.00 0.00 93 1020.3
20260831102718 69 348 0.0 0.0 0.00 0.00 0.00 93 1020.3
20260831102214 69 352 0.0 0.9 0.00 0.00 0.00 93 1020.2
20260831101709 69 66 0.9 0.9 0.00 0.00 0.00 93 1020.3
20260831101204 69 118 0.0 0.9 0.00 0.00 0.00 93 1020.2
20260831100700 69 118 0.9 0.9 0.00 0.00 0.00 93 1020.3
20260831100156 69 121 0.0 0.9 0.00 0.00 0.00 93 1020.1
20260831095654 69 116 2.6 3.5 0.00 0.00 0.00 93 1020.1
20260831095149 69 120 0.0 0.9 0.00 0.00 0.00 93 1020.1
20260831094644 69 98 0.0 2.6 0.00 0.00 0.00 94 1019.9
20260831094140 69 137 0.9 0.9 0.00 0.00 0.00 93 1019.9
20260831093636 69 136 0.0 0.9 0.00 0.00 0.00 93 1020.1
20260831093132 69 131 0.0 0.9 0.00 0.00 0.00 94 1020.2
20260831092628 69 112 0.0 0.9 0.00 0.00 0.00 94 1020.3
20260831092123 69 213 0.0 0.9 0.00 0.00 0.00 94 1020.2
20260831091623 69 213 0.0 0.9 0.00 0.00 0.00 94 1020.2
20260831091118 69 212 0.0 0.0 0.00 0.00 0.00 94 1020.2
20260831090614 69 208 0.0 0.9 0.00 0.00 0.00 94 1020.3
20260831090110 69 208 1.7 2.6 0.00 0.00 0.00 94 1020.3
20260831085605 69 149 0.9 0.9 0.00 0.00 0.00 94 1020.1
20260831085100 69 149 1.7 2.6 0.00 0.00 0.00 94 1020.3
20260831084556 69 142 0.0 0.9 0.00 0.00 0.00 94 1020.1
20260831084052 69 125 0.0 0.0 0.00 0.00 0.00 94 1020.2
20260831083547 69 125 0.0 0.0 0.00 0.00 0.00 94 1020.2
20260831083042 69 125 0.0 0.9 0.00 0.00 0.00 93 1019.9
20260831082535 69 126 0.0 0.9 0.00 0.00 0.00 93 1019.9
20260831082031 69 119 0.9 3.5 0.00 0.00 0.00 93 1020.2
20260831081527 69 107 1.7 2.6 0.00 0.00 0.00 94 1020.2
20260831081022 69 129 1.7 0.9 0.00 0.00 0.00 94 1020.2
20260831080516 69 128 0.0 0.9 0.00 0.00 0.00 95 1020.4
20260831080012 68 128 2.6 2.6 0.00 0.00 0.00 95 1020.2
20260831075507 68 128 0.0 0.9 0.00 0.00 0.00 95 1020.2
20260831075003 68 128 0.0 0.9 0.00 0.00 0.00 95 1020.2
20260831074502 68 128 0.0 0.9 0.00 0.00 0.00 95 1020.2
20260831073957 68 128 0.0 0.0 0.00 0.00 0.00 95 1020.1
20260831073456 69 128 0.0 0.9 0.00 0.00 0.00 95 1019.9
20260831072955 69 128 0.9 2.6 0.00 0.00 0.00 95 1020.3
20260831072452 69 126 0.0 0.0 0.00 0.00 0.00 95 1020.4
20260831071948 69 126 0.9 0.9 0.00 0.00 0.00 95 1020.3
20260831071447 69 126 0.9 0.9 0.00 0.00 0.00 95 1020.2
20260831070942 69 126 1.7 2.6 0.00 0.00 0.00 95 1020.3
20260831070441 69 154 0.0 0.0 0.00 0.00 0.00 95 1020.4
20260831065941 69 154 0.0 0.0 0.00 0.00 0.00 95 1020.6
20260831065439 69 155 0.0 0.0 0.00 0.00 0.00 95 1020.6
20260831064934 69 139 0.0 0.9 0.00 0.00 0.00 95 1020.4
20260831064429 69 135 0.0 2.6 0.00 0.00 0.00 95 1020.5
20260831063925 69 141 0.9 0.9 0.00 0.00 0.00 95 1020.5
20260831063420 69 141 0.0 2.6 0.00 0.00 0.00 95 1020.7
20260831062919 69 122 0.0 0.9 0.00 0.00 0.00 96 1020.6
20260831062415 69 122 0.0 0.0 0.00 0.00 0.00 96 1020.6
20260831061914 69 122 0.9 0.9 0.00 0.00 0.00 96 1020.8
20260831061413 69 122 0.0 0.9 0.00 0.00 0.00 96 1020.8
20260831060909 69 121 0.0 0.9 0.00 0.00 0.00 96 1020.7
20260831060404 69 121 0.9 0.9 0.00 0.00 0.00 96 1020.8
20260831055904 69 113 1.7 2.6 0.00 0.00 0.00 96 1020.8
20260831055359 69 107 1.7 2.6 0.00 0.00 0.00 96 1020.7
20260831054854 69 105 1.7 0.9 0.00 0.00 0.00 96 1020.8
20260831054349 69 103 1.7 0.9 0.00 0.00 0.00 96 1020.9
20260831053848 69 112 2.6 2.6 0.00 0.00 0.00 96 1021.0
20260831053346 69 122 0.9 0.9 0.00 0.00 0.00 96 1021.2
20260831052841 69 122 0.0 0.9 0.00 0.00 0.00 96 1021.1
20260831052340 69 78 0.9 2.6 0.00 0.00 0.00 96 1021.2
20260831051839 69 55 0.0 0.0 0.00 0.00 0.00 96 1021.3
20260831051337 69 55 0.0 0.0 0.00 0.00 0.00 95 1021.2
20260831050832 69 55 0.0 0.9 0.00 0.00 0.00 95 1021.2
20260831050332 69 70 2.6 2.6 0.00 0.00 0.00 95 1021.2
20260831045826 69 20 0.0 0.9 0.00 0.00 0.00 95 1021.3
20260831045320 70 20 1.7 2.6 0.00 0.00 0.00 95 1021.3
20260831044815 70 56 1.7 0.9 0.00 0.00 0.00 94 1021.2
20260831044310 70 131 0.0 0.9 0.00 0.00 0.00 94 1021.1
20260831043807 70 52 0.9 0.9 0.00 0.00 0.00 94 1021.2
20260831043306 70 49 1.7 2.6 0.00 0.00 0.00 95 1021.3
20260831042801 70 11 3.5 3.5 0.00 0.00 0.00 95 1021.0
20260831042300 70 349 2.6 3.5 0.00 0.00 0.00 95 1021.2
20260831041756 69 106 0.0 2.6 0.00 0.00 0.00 95 1021.0
20260831041255 69 133 2.6 3.5 0.00 0.00 0.00 95 1020.9
20260831040750 69 116 2.6 2.6 0.00 0.00 0.00 95 1021.0
20260831040249 69 112 0.9 0.9 0.00 0.00 0.00 95 1021.0
20260831035748 69 135 2.6 3.5 0.00 0.00 0.00 95 1021.2
20260831035247 69 127 0.0 0.0 0.00 0.00 0.00 94 1021.1
20260831034746 69 127 0.9 0.9 0.00 0.00 0.00 94 1021.4
20260831034242 69 127 0.0 0.0 0.00 0.00 0.00 94 1021.3
20260831033738 69 127 0.9 0.9 0.00 0.00 0.00 94 1021.4
20260831033237 69 127 0.9 0.9 0.00 0.00 0.00 94 1021.3
20260831032732 69 127 0.0 0.9 0.00 0.00 0.00 94 1021.5
20260831032227 69 127 0.0 0.9 0.00 0.00 0.00 94 1021.6
20260831031722 69 127 0.9 0.9 0.00 0.00 0.00 94 1021.4
20260831031217 69 125 0.9 0.9 0.00 0.00 0.00 93 1021.4
20260831030716 70 126 0.0 0.9 0.00 0.00 0.00 93 1021.5
20260831030214 70 112 0.0 0.9 0.00 0.00 0.00 93 1021.4
20260831025708 70 120 0.0 2.6 0.00 0.00 0.00 93 1021.5
20260831025203 70 119 0.9 0.9 0.00 0.00 0.00 92 1021.6
20260831024659 70 130 1.7 6.1 0.00 0.00 0.00 92 1021.7
20260831024157 70 124 0.9 3.5 0.00 0.00 0.00 92 1021.7
20260831023655 70 83 0.0 0.0 0.00 0.00 0.00 92 1021.9
20260831023149 70 83 0.0 0.0 0.00 0.00 0.00 92 1021.9
20260831022644 70 94 1.7 2.6 0.00 0.00 0.00 92 1021.9